StationID,Date,MaxTemp,MinTemp,Precipitation,Snowfall,SnowDepth
"CA001096460","1962-03-15",46.94,32.00,0.00,0.00,
"CA001096460","1962-03-16",51.98,28.94,0.00,0.00,
"CA001096460","1962-03-17",46.04,28.04,38.00,0.00,
"CA001096460","1962-03-18",44.96,32.00,0.00,0.00,
"CA001096460","1962-03-19",42.98,21.92,0.00,0.00,
"CA001096460","1962-03-20",35.96,26.06,0.00,0.00,
"CA001096460","1962-03-21",37.04,12.02,5.00,5.00,
"CA001096460","1962-03-22",28.94,19.94,0.00,0.00,
"CA001096460","1962-03-23",42.98,19.04,0.00,0.00,
"CA001096460","1962-03-24",44.96,28.94,0.00,0.00,
"CA001096460","1962-03-25",44.96,26.06,0.00,0.00,
"CA001096460","1962-03-26",44.06,19.94,56.00,56.00,
"CA001096460","1962-03-27",44.96,21.02,0.00,0.00,
"CA001096460","1962-03-28",44.96,21.02,0.00,0.00,
"CA001096460","1962-03-29",53.96,21.92,0.00,0.00,
"CA001096460","1962-03-30",57.02,19.94,0.00,0.00,
"CA001096460","1962-03-31",57.92,21.02,0.00,0.00,
"CA001096460","1962-04-01",60.08,21.02,0.00,0.00,
"CA001096460","1962-04-02",57.02,19.94,0.00,0.00,
"CA001096460","1962-04-03",60.08,21.02,0.00,0.00,
"CA001096460","1962-04-04",51.98,32.00,3.00,0.00,
"CA001096460","1962-04-05",50.00,26.06,0.00,0.00,
"CA001096460","1962-04-06",48.92,32.00,0.00,0.00,
"CA001096460","1962-04-07",44.06,30.02,0.00,0.00,
"CA001096460","1962-04-08",46.94,28.04,0.00,0.00,
"CA001096460","1962-04-09",44.06,30.02,0.00,0.00,
"CA001096460","1962-04-10",48.02,26.06,0.00,0.00,
"CA001096460","1962-04-11",51.08,19.94,0.00,0.00,
"CA001096460","1962-04-12",66.02,28.94,0.00,0.00,
"CA001096460","1962-04-13",69.98,23.00,0.00,0.00,
"CA001096460","1962-04-14",66.02,21.02,3.00,0.00,
"CA001096460","1962-04-15",53.06,24.98,0.00,0.00,
"CA001096460","1962-04-16",55.94,28.94,0.00,0.00,
"CA001096460","1962-04-17",64.94,32.00,0.00,0.00,
"CA001096460","1962-04-18",51.08,39.02,5.00,0.00,
"CA001096460","1962-04-19",53.96,24.98,5.00,0.00,
"CA001096460","1962-04-20",55.94,26.06,0.00,0.00,
"CA001096460","1962-04-21",51.08,26.96,0.00,0.00,
"CA001096460","1962-04-22",64.94,32.00,5.00,0.00,
"CA001096460","1962-04-23",51.08,35.06,3.00,0.00,
"CA001096460","1962-04-24",51.08,35.96,23.00,0.00,
"CA001096460","1962-04-25",51.08,26.96,0.00,0.00,
"CA001096460","1962-04-26",51.98,24.98,0.00,0.00,
"CA001096460","1962-04-27",51.98,28.94,51.00,0.00,
"CA001096460","1962-04-28",46.94,33.08,56.00,0.00,
"CA001096460","1962-04-29",55.04,32.00,0.00,0.00,
"CA001096460","1962-04-30",55.04,32.00,0.00,0.00,
"CA001096460","1962-05-01",51.98,39.02,0.00,0.00,
"CA001096460","1962-05-02",50.00,30.92,0.00,0.00,
"CA001096460","1962-05-03",48.02,26.96,8.00,0.00,
"CA001096460","1962-05-04",46.94,33.08,13.00,0.00,
"CA001096460","1962-05-05",48.92,26.96,5.00,0.00,
"CA001096460","1962-05-06",50.00,28.04,0.00,0.00,
"CA001096460","1962-05-07",53.96,23.00,0.00,0.00,
"CA001096460","1962-05-08",62.06,21.92,0.00,0.00,
"CA001096460","1962-05-09",64.94,24.98,0.00,0.00,
"CA001096460","1962-05-10",64.94,35.06,0.00,0.00,
"CA001096460","1962-05-11",60.08,33.98,0.00,0.00,
"CA001096460","1962-05-12",55.04,39.02,0.00,0.00,
"CA001096460","1962-05-13",62.96,26.96,0.00,0.00,
"CA001096460","1962-05-14",59.00,28.04,0.00,0.00,
"CA001096460","1962-05-15",64.04,30.92,0.00,0.00,
"CA001096460","1962-05-16",66.02,28.04,0.00,0.00,
"CA001096460","1962-05-17",60.08,35.06,0.00,0.00,
"CA001096460","1962-05-18",64.04,35.06,0.00,0.00,
"CA001096460","1962-05-19",62.96,37.04,0.00,0.00,
"CA001096460","1962-05-20",62.06,33.98,30.00,0.00,
"CA001096460","1962-05-21",66.02,37.94,0.00,0.00,
"CA001096460","1962-05-22",57.02,37.04,99.00,0.00,
"CA001096460","1962-05-23",59.00,46.04,13.00,0.00,
"CA001096460","1962-05-24",62.96,39.02,38.00,0.00,
"CA001096460","1962-05-25",60.08,50.00,64.00,0.00,
"CA001096460","1962-05-26",71.06,48.92,69.00,0.00,
"CA001096460","1962-05-27",62.06,41.00,13.00,0.00,
"CA001096460","1962-05-28",62.96,42.08,0.00,0.00,
"CA001096460","1962-05-29",60.08,42.08,41.00,0.00,
"CA001096460","1962-05-30",60.98,37.94,0.00,0.00,
"CA001096460","1962-05-31",55.94,39.02,99.00,0.00,
"CA001096460","1962-06-01",57.02,30.92,53.00,0.00,
"CA001096460","1962-06-02",62.96,42.08,61.00,0.00,
"CA001096460","1962-06-03",51.98,37.04,5.00,0.00,
"CA001096460","1962-06-04",60.08,28.94,0.00,0.00,
"CA001096460","1962-06-05",60.98,35.96,0.00,0.00,
"CA001096460","1962-06-06",64.04,33.08,18.00,0.00,
"CA001096460","1962-06-07",71.06,50.00,48.00,0.00,
"CA001096460","1962-06-08",64.04,39.92,0.00,0.00,
"CA001096460","1962-06-09",57.92,28.94,0.00,0.00,
"CA001096460","1962-06-10",57.92,30.02,0.00,0.00,
"CA001096460","1962-06-11",60.08,42.08,28.00,0.00,
"CA001096460","1962-06-12",64.94,35.06,0.00,0.00,
"CA001096460","1962-06-13",73.94,35.06,0.00,0.00,
"CA001096460","1962-06-14",75.92,37.94,0.00,0.00,
"CA001096460","1962-06-15",75.02,44.06,0.00,0.00,
"CA001096460","1962-06-16",69.08,42.08,23.00,0.00,
"CA001096460","1962-06-17",64.94,44.96,0.00,0.00,
"CA001096460","1962-06-18",64.94,37.94,8.00,0.00,
"CA001096460","1962-06-19",66.02,46.04,0.00,0.00,
"CA001096460","1962-06-20",71.06,39.92,0.00,0.00,
"CA001096460","1962-06-21",71.06,42.08,0.00,0.00,
"CA001096460","1962-06-22",71.06,44.96,0.00,0.00,
"CA001096460","1962-06-23",75.92,39.02,0.00,0.00,
"CA001096460","1962-06-24",80.96,42.08,0.00,0.00,
"CA001096460","1962-06-25",80.06,44.96,163.00,0.00,
"CA001096460","1962-06-26",60.08,50.00,315.00,0.00,
"CA001096460","1962-06-27",57.92,44.96,119.00,0.00,
"CA001096460","1962-06-28",71.96,50.00,0.00,0.00,
"CA001096460","1962-06-29",73.94,39.02,89.00,0.00,
"CA001096460","1962-06-30",62.06,42.08,20.00,0.00,
"CA001096460","1962-07-01",71.06,37.94,0.00,0.00,
"CA001096460","1962-07-02",60.98,35.96,0.00,0.00,
"CA001096460","1962-07-03",64.04,42.08,0.00,0.00,
"CA001096460","1962-07-04",69.98,33.08,0.00,0.00,
"CA001096460","1962-07-05",73.04,42.08,0.00,0.00,
"CA001096460","1962-07-06",78.08,39.02,0.00,0.00,
"CA001096460","1962-07-07",78.08,51.98,0.00,0.00,
"CA001096460","1962-07-08",78.98,42.98,0.00,0.00,
"CA001096460","1962-07-09",77.00,44.96,0.00,0.00,
"CA001096460","1962-07-10",80.06,48.02,0.00,0.00,
"CA001096460","1962-07-11",75.92,41.00,0.00,0.00,
"CA001096460","1962-07-12",78.98,44.96,0.00,0.00,
"CA001096460","1962-07-13",71.06,50.00,0.00,0.00,
"CA001096460","1962-07-14",68.00,46.94,0.00,0.00,
"CA001096460","1962-07-15",68.00,32.00,56.00,0.00,
"CA001096460","1962-07-16",68.00,46.04,0.00,0.00,
"CA001096460","1962-07-17",71.96,39.02,43.00,0.00,
"CA001096460","1962-07-18",66.92,48.92,79.00,0.00,
"CA001096460","1962-07-19",62.96,48.92,30.00,0.00,
"CA001096460","1962-07-20",68.00,51.98,10.00,0.00,
"CA001096460","1962-07-21",73.04,42.08,0.00,0.00,
"CA001096460","1962-07-22",80.06,41.00,0.00,0.00,
"CA001096460","1962-07-23",86.00,44.96,0.00,0.00,
"CA001096460","1962-07-24",89.06,51.98,8.00,0.00,
"CA001096460","1962-07-25",87.98,51.08,0.00,0.00,
"CA001096460","1962-07-26",82.94,46.04,0.00,0.00,
"CA001096460","1962-07-27",84.92,42.98,0.00,0.00,
"CA001096460","1962-07-28",75.92,41.00,0.00,0.00,
"CA001096460","1962-07-29",82.04,39.92,0.00,0.00,
"CA001096460","1962-07-30",86.00,41.00,0.00,0.00,
"CA001096460","1962-07-31",84.92,42.08,0.00,0.00,
"CA001096460","1962-08-01",82.04,51.08,0.00,0.00,
"CA001096460","1962-08-02",78.08,51.98,13.00,0.00,
"CA001096460","1962-08-03",73.94,51.98,8.00,0.00,
"CA001096460","1962-08-04",68.00,53.96,183.00,0.00,
"CA001096460","1962-08-05",68.00,51.98,0.00,0.00,
"CA001096460","1962-08-06",69.08,42.98,0.00,0.00,
"CA001096460","1962-08-07",71.06,51.08,117.00,0.00,
"CA001096460","1962-08-08",62.06,51.98,5.00,0.00,
"CA001096460","1962-08-09",60.08,48.02,33.00,0.00,
"CA001096460","1962-08-10",71.96,48.92,25.00,0.00,
"CA001096460","1962-08-11",71.96,51.08,20.00,0.00,
"CA001096460","1962-08-12",64.94,50.00,58.00,0.00,
"CA001096460","1962-08-13",64.94,46.04,0.00,0.00,
"CA001096460","1962-08-14",64.94,35.06,0.00,0.00,
"CA001096460","1962-08-15",77.00,48.92,0.00,0.00,
"CA001096460","1962-08-16",68.00,55.04,81.00,0.00,
"CA001096460","1962-08-17",62.96,51.08,25.00,0.00,
"CA001096460","1962-08-18",62.96,48.02,69.00,0.00,
"CA001096460","1962-08-19",60.08,48.92,107.00,0.00,
"CA001096460","1962-08-20",69.08,53.96,53.00,0.00,
"CA001096460","1962-08-21",57.92,42.98,23.00,0.00,
"CA001096460","1962-08-22",64.94,44.06,0.00,0.00,
"CA001096460","1962-08-23",66.92,51.08,15.00,0.00,
"CA001096460","1962-08-24",64.94,48.92,0.00,0.00,
"CA001096460","1962-08-25",64.94,39.02,0.00,0.00,
"CA001096460","1962-08-26",66.92,33.98,0.00,0.00,
"CA001096460","1962-08-27",60.08,46.94,10.00,0.00,
"CA001096460","1962-08-28",66.02,42.08,0.00,0.00,
"CA001096460","1962-08-29",71.96,37.94,0.00,0.00,
"CA001096460","1962-08-30",78.08,39.92,0.00,0.00,
"CA001096460","1962-08-31",73.94,44.96,0.00,0.00,
"CA001096460","1962-09-01",62.96,39.92,0.00,0.00,
"CA001096460","1962-09-02",60.98,26.96,0.00,0.00,
"CA001096460","1962-09-03",69.98,30.02,0.00,0.00,
"CA001096460","1962-09-04",75.92,32.00,0.00,0.00,
"CA001096460","1962-09-05",69.98,39.92,0.00,0.00,
"CA001096460","1962-09-06",62.96,41.00,36.00,0.00,
"CA001096460","1962-09-07",55.04,26.06,0.00,0.00,
"CA001096460","1962-09-08",59.00,35.06,109.00,0.00,
"CA001096460","1962-09-09",60.08,46.04,86.00,0.00,
"CA001096460","1962-09-10",55.94,39.92,0.00,0.00,
"CA001096460","1962-09-11",57.92,35.06,0.00,0.00,
"CA001096460","1962-09-12",60.08,32.00,0.00,0.00,
"CA001096460","1962-09-13",60.08,28.94,0.00,0.00,
"CA001096460","1962-09-14",57.92,33.98,43.00,0.00,
"CA001096460","1962-09-15",57.02,30.92,0.00,0.00,
"CA001096460","1962-09-16",50.00,37.94,76.00,0.00,
"CA001096460","1962-09-17",59.00,44.06,0.00,0.00,
"CA001096460","1962-09-18",73.04,42.98,0.00,0.00,
"CA001096460","1962-09-19",71.06,41.00,0.00,0.00,
"CA001096460","1962-09-20",69.98,42.98,0.00,0.00,
"CA001096460","1962-09-21",75.92,42.08,10.00,0.00,
"CA001096460","1962-09-22",66.02,46.04,0.00,0.00,
"CA001096460","1962-09-23",66.02,33.98,0.00,0.00,
"CA001096460","1962-09-24",69.08,35.96,0.00,0.00,
"CA001096460","1962-09-25",75.02,37.04,0.00,0.00,
"CA001096460","1962-09-26",59.00,37.94,53.00,0.00,
"CA001096460","1962-09-27",59.00,44.96,79.00,0.00,
"CA001096460","1962-09-28",57.92,33.08,0.00,0.00,
"CA001096460","1962-09-29",60.98,35.06,0.00,0.00,
"CA001096460","1962-09-30",66.02,55.04,66.00,0.00,
"CA001096460","1962-10-01",51.08,42.08,48.00,0.00,
"CA001096460","1962-10-02",53.96,44.06,109.00,0.00,
"CA001096460","1962-10-03",46.04,44.06,218.00,0.00,
"CA001096460","1962-10-04",53.06,33.98,0.00,0.00,
"CA001096460","1962-10-05",51.98,28.04,15.00,0.00,
"CA001096460","1962-10-06",53.06,33.08,0.00,0.00,
"CA001096460","1962-10-07",48.02,28.04,15.00,0.00,
"CA001096460","1962-10-08",51.98,37.94,0.00,0.00,
"CA001096460","1962-10-09",53.06,26.96,0.00,0.00,
"CA001096460","1962-10-10",53.96,26.96,0.00,0.00,
"CA001096460","1962-10-11",53.06,21.92,13.00,0.00,
"CA001096460","1962-10-12",51.08,37.04,122.00,0.00,
"CA001096460","1962-10-13",41.00,37.94,5.00,0.00,
"CA001096460","1962-10-14",50.00,33.98,0.00,0.00,
"CA001096460","1962-10-15",51.98,30.02,0.00,0.00,
"CA001096460","1962-10-16",48.92,33.98,61.00,0.00,
"CA001096460","1962-10-17",50.00,42.98,23.00,0.00,
"CA001096460","1962-10-18",53.06,39.92,0.00,0.00,
"CA001096460","1962-10-19",51.08,32.00,61.00,0.00,
"CA001096460","1962-10-20",48.02,33.98,221.00,0.00,
"CA001096460","1962-10-21",46.94,39.92,0.00,0.00,
"CA001096460","1962-10-22",35.96,26.96,74.00,0.00,
"CA001096460","1962-10-23",39.02,33.08,0.00,0.00,
"CA001096460","1962-10-24",46.04,35.06,0.00,0.00,
"CA001096460","1962-10-25",51.08,33.98,15.00,0.00,
"CA001096460","1962-10-26",53.06,33.98,0.00,0.00,
"CA001096460","1962-10-27",59.00,35.96,0.00,0.00,
"CA001096460","1962-10-28",57.02,30.02,0.00,0.00,
"CA001096460","1962-10-29",64.04,35.96,0.00,0.00,
"CA001096460","1962-10-30",60.08,32.00,102.00,0.00,
"CA001096460","1962-10-31",50.00,42.98,41.00,0.00,
"CA001096460","1962-11-01",55.04,42.08,0.00,0.00,
"CA001096460","1962-11-02",53.96,30.92,0.00,0.00,
"CA001096460","1962-11-03",50.00,30.02,0.00,0.00,
"CA001096460","1962-11-04",46.94,35.06,76.00,0.00,
"CA001096460","1962-11-05",46.94,33.98,18.00,0.00,
"CA001096460","1962-11-06",48.02,32.00,0.00,0.00,
"CA001096460","1962-11-07",48.92,32.00,122.00,0.00,
"CA001096460","1962-11-08",42.98,33.08,0.00,0.00,
"CA001096460","1962-11-09",33.98,26.96,25.00,0.00,
"CA001096460","1962-11-10",44.06,30.02,0.00,0.00,
"CA001096460","1962-11-11",44.96,24.98,25.00,0.00,
"CA001096460","1962-11-12",44.96,28.04,28.00,28.00,
"CA001096460","1962-11-13",35.06,28.94,13.00,0.00,
"CA001096460","1962-11-14",35.96,30.92,0.00,0.00,
"CA001096460","1962-11-15",37.04,26.96,0.00,0.00,
"CA001096460","1962-11-16",39.02,32.00,0.00,0.00,
"CA001096460","1962-11-17",35.06,28.04,0.00,0.00,
"CA001096460","1962-11-18",44.96,28.04,25.00,0.00,
"CA001096460","1962-11-19",51.98,33.98,30.00,0.00,
"CA001096460","1962-11-20",39.02,28.04,0.00,0.00,
"CA001096460","1962-11-21",37.94,28.94,0.00,0.00,
"CA001096460","1962-11-22",35.96,24.98,0.00,0.00,
"CA001096460","1962-11-23",37.94,23.00,0.00,0.00,
"CA001096460","1962-11-24",35.96,26.96,36.00,0.00,
"CA001096460","1962-11-25",33.08,26.96,229.00,229.00,
"CA001096460","1962-11-26",33.98,28.94,0.00,0.00,
"CA001096460","1962-11-27",33.08,24.98,0.00,0.00,
"CA001096460","1962-11-28",33.08,19.04,0.00,0.00,
"CA001096460","1962-11-29",33.98,10.94,51.00,51.00,
"CA001096460","1962-11-30",30.92,23.00,0.00,0.00,
"CA001096460","1962-12-01",28.04,10.04,173.00,173.00,
"CA001096460","1962-12-02",37.94,15.08,0.00,0.00,
"CA001096460","1962-12-03",33.98,23.00,0.00,0.00,
"CA001096460","1962-12-04",39.92,8.96,5.00,5.00,
"CA001096460","1962-12-05",39.92,28.04,147.00,0.00,
"CA001096460","1962-12-06",30.92,26.96,0.00,0.00,
"CA001096460","1962-12-07",33.08,26.06,13.00,0.00,
"CA001096460","1962-12-08",37.94,28.94,0.00,0.00,
"CA001096460","1962-12-09",37.94,33.08,0.00,0.00,
"CA001096460","1962-12-10",30.92,28.04,0.00,0.00,
"CA001096460","1962-12-11",35.06,21.92,0.00,0.00,
"CA001096460","1962-12-12",32.00,21.02,81.00,0.00,
"CA001096460","1962-12-13",39.92,24.98,0.00,0.00,
"CA001096460","1962-12-14",41.00,19.94,218.00,218.00,
"CA001096460","1962-12-15",48.02,28.94,13.00,0.00,
"CA001096460","1962-12-16",42.98,35.06,0.00,0.00,
"CA001096460","1962-12-17",37.04,30.92,0.00,0.00,
"CA001096460","1962-12-18",33.08,28.04,0.00,0.00,
"CA001096460","1962-12-19",35.96,23.00,25.00,25.00,
"CA001096460","1962-12-20",37.94,33.08,91.00,0.00,
"CA001096460","1962-12-21",35.06,26.96,0.00,0.00,
"CA001096460","1962-12-22",24.08,15.98,0.00,0.00,
"CA001096460","1962-12-23",17.96,15.98,0.00,0.00,
"CA001096460","1962-12-24",19.04,10.04,0.00,0.00,
"CA001096460","1962-12-25",21.02,12.02,0.00,0.00,
"CA001096460","1962-12-26",32.00,17.06,81.00,81.00,
"CA001096460","1962-12-27",32.00,14.00,81.00,81.00,
"CA001096460","1962-12-28",,-27.94,117.00,117.00,
"CA001096460","1962-12-29",6.98,-11.92,46.00,46.00,
"CA001096460","1962-12-30",32.00,1.04,36.00,36.00,
"CA001096460","1962-12-31",33.98,3.92,46.00,46.00,
"CA001096460","1963-01-01",37.04,10.04,0.00,0.00,
"CA001096460","1963-01-02",26.96,3.92,0.00,0.00,
"CA001096460","1963-01-03",35.96,12.92,0.00,0.00,
"CA001096460","1963-01-04",37.94,28.04,0.00,0.00,
"CA001096460","1963-01-05",42.08,35.96,0.00,0.00,
"CA001096460","1963-01-06",42.08,33.98,0.00,0.00,
"CA001096460","1963-01-07",46.94,35.96,0.00,0.00,
"CA001096460","1963-01-08",33.98,23.00,0.00,0.00,
"CA001096460","1963-01-09",6.98,-14.98,0.00,0.00,
"CA001096460","1963-01-10",-14.08,-36.94,0.00,0.00,
"CA001096460","1963-01-11",-5.98,-36.94,20.00,20.00,
"CA001096460","1963-01-12",5.00,-20.02,46.00,46.00,
"CA001096460","1963-01-13",17.06,-0.94,10.00,10.00,
"CA001096460","1963-01-14",21.92,5.00,20.00,20.00,
"CA001096460","1963-01-15",26.96,10.94,10.00,10.00,
"CA001096460","1963-01-16",28.04,5.00,0.00,0.00,
"CA001096460","1963-01-17",23.00,14.00,0.00,0.00,
"CA001096460","1963-01-18",6.98,-18.04,0.00,0.00,
"CA001096460","1963-01-19",12.02,-9.94,0.00,0.00,
"CA001096460","1963-01-20",28.94,-0.04,0.00,0.00,
"CA001096460","1963-01-21",26.96,12.02,0.00,0.00,
"CA001096460","1963-01-22",1.94,-9.04,30.00,30.00,
"CA001096460","1963-01-23",8.96,-5.08,41.00,41.00,
"CA001096460","1963-01-24",12.02,-2.02,0.00,0.00,
"CA001096460","1963-01-25",5.00,-23.98,10.00,10.00,
"CA001096460","1963-01-26",12.02,-0.94,10.00,10.00,
"CA001096460","1963-01-27",21.02,-2.02,0.00,0.00,
"CA001096460","1963-01-28",10.94,-13.00,0.00,0.00,
"CA001096460","1963-01-29",5.00,-25.06,0.00,0.00,
"CA001096460","1963-01-30",12.92,-7.96,0.00,0.00,
"CA001096460","1963-01-31",14.00,8.96,0.00,0.00,
"CA001096460","1963-02-01",10.94,-7.06,25.00,25.00,
"CA001096460","1963-02-02",24.98,6.08,102.00,102.00,
"CA001096460","1963-02-03",10.04,6.08,0.00,0.00,
"CA001096460","1963-02-04",48.92,1.04,0.00,0.00,
"CA001096460","1963-02-05",53.06,26.96,0.00,0.00,
"CA001096460","1963-02-06",57.92,42.98,0.00,0.00,
"CA001096460","1963-02-07",48.02,24.08,0.00,0.00,
"CA001096460","1963-02-08",48.02,17.96,0.00,0.00,
"CA001096460","1963-02-09",42.08,15.08,0.00,0.00,
"CA001096460","1963-02-10",39.02,12.92,0.00,0.00,
"CA001096460","1963-02-11",35.96,10.04,0.00,0.00,
"CA001096460","1963-02-12",33.08,10.04,0.00,0.00,
"CA001096460","1963-02-13",35.06,8.96,0.00,0.00,
"CA001096460","1963-02-14",30.92,5.00,0.00,0.00,
"CA001096460","1963-02-15",44.06,21.02,0.00,0.00,
"CA001096460","1963-02-16",39.92,17.06,0.00,0.00,
"CA001096460","1963-02-17",39.92,28.94,0.00,0.00,
"CA001096460","1963-02-18",42.08,28.04,0.00,0.00,
"CA001096460","1963-02-19",35.06,24.08,25.00,25.00,
"CA001096460","1963-02-20",46.94,28.94,0.00,0.00,
"CA001096460","1963-02-21",44.06,28.04,107.00,0.00,
"CA001096460","1963-02-22",42.98,32.00,13.00,0.00,
"CA001096460","1963-02-23",51.08,33.98,0.00,0.00,
"CA001096460","1963-02-24",44.06,28.04,0.00,0.00,
"CA001096460","1963-02-25",39.02,28.04,107.00,0.00,
"CA001096460","1963-02-26",39.92,28.94,163.00,25.00,
"CA001096460","1963-02-27",39.92,28.04,43.00,0.00,
"CA001096460","1963-02-28",44.96,32.00,0.00,0.00,
"CA001096460","1963-03-01",35.96,24.08,0.00,0.00,
"CA001096460","1963-03-02",41.00,24.98,0.00,0.00,
"CA001096460","1963-03-03",42.08,19.94,0.00,0.00,
"CA001096460","1963-03-04",37.04,28.94,0.00,0.00,
"CA001096460","1963-03-05",42.08,30.92,0.00,0.00,
"CA001096460","1963-03-06",44.96,21.92,0.00,0.00,
"CA001096460","1963-03-07",46.04,21.02,0.00,0.00,
"CA001096460","1963-03-08",48.02,24.08,0.00,0.00,
"CA001096460","1963-03-09",46.04,28.94,0.00,0.00,
"CA001096460","1963-03-10",46.94,26.96,0.00,0.00,
"CA001096460","1963-03-11",41.00,28.94,30.00,5.00,
"CA001096460","1963-03-12",44.06,26.06,0.00,0.00,
"CA001096460","1963-03-13",35.06,23.00,28.00,5.00,
"CA001096460","1963-03-14",30.92,23.00,5.00,5.00,
"CA001096460","1963-03-15",35.06,5.00,0.00,0.00,
"CA001096460","1963-03-16",35.06,23.00,0.00,0.00,
"CA001096460","1963-03-17",46.04,17.06,0.00,0.00,
"CA001096460","1963-03-18",42.98,26.96,36.00,0.00,
"CA001096460","1963-03-19",44.06,23.00,0.00,0.00,
"CA001096460","1963-03-20",50.00,32.00,218.00,152.00,
"CA001096460","1963-03-21",35.96,24.08,0.00,0.00,
"CA001096460","1963-03-22",42.98,26.96,0.00,0.00,
"CA001096460","1963-03-23",44.96,14.00,0.00,0.00,
"CA001096460","1963-03-24",44.96,19.94,0.00,0.00,
"CA001096460","1963-03-25",44.96,19.94,0.00,0.00,
"CA001096460","1963-03-26",51.08,21.02,0.00,0.00,
"CA001096460","1963-03-27",48.92,24.98,0.00,0.00,
"CA001096460","1963-03-28",42.98,30.02,191.00,30.00,
"CA001096460","1963-03-29",33.98,12.02,0.00,0.00,
"CA001096460","1963-03-30",24.08,15.98,0.00,0.00,
"CA001096460","1963-03-31",30.02,12.02,0.00,0.00,
"CA001096460","1963-04-01",42.08,1.94,0.00,0.00,
"CA001096460","1963-04-02",46.04,21.92,0.00,0.00,
"CA001096460","1963-04-03",46.94,19.94,0.00,0.00,
"CA001096460","1963-04-04",46.94,35.96,53.00,0.00,
"CA001096460","1963-04-05",50.00,26.06,0.00,0.00,
"CA001096460","1963-04-06",39.02,30.92,0.00,0.00,
"CA001096460","1963-04-07",35.96,28.94,0.00,0.00,
"CA001096460","1963-04-08",41.00,26.06,0.00,0.00,
"CA001096460","1963-04-09",51.98,21.02,0.00,0.00,
"CA001096460","1963-04-10",55.04,19.94,0.00,0.00,
"CA001096460","1963-04-11",55.94,24.98,0.00,0.00,
"CA001096460","1963-04-12",57.02,26.06,94.00,0.00,
"CA001096460","1963-04-13",51.98,28.94,20.00,0.00,
"CA001096460","1963-04-14",57.02,26.06,71.00,0.00,
"CA001096460","1963-04-15",46.94,39.92,127.00,0.00,
"CA001096460","1963-04-16",50.00,33.98,23.00,0.00,
"CA001096460","1963-04-17",53.96,37.04,0.00,0.00,
"CA001096460","1963-04-18",51.98,26.96,0.00,0.00,
"CA001096460","1963-04-19",50.00,33.98,0.00,0.00,
"CA001096460","1963-04-20",50.00,28.94,0.00,0.00,
"CA001096460","1963-04-21",55.04,24.08,0.00,0.00,
"CA001096460","1963-04-22",60.98,26.06,0.00,0.00,
"CA001096460","1963-04-23",57.02,32.00,0.00,0.00,
"CA001096460","1963-04-24",59.00,35.06,0.00,0.00,
"CA001096460","1963-04-25",60.08,37.94,0.00,0.00,
"CA001096460","1963-04-26",64.04,28.04,0.00,0.00,
"CA001096460","1963-04-27",62.06,28.94,0.00,0.00,
"CA001096460","1963-04-28",69.98,28.04,0.00,0.00,
"CA001096460","1963-04-29",68.00,39.02,10.00,0.00,
"CA001096460","1963-04-30",55.94,26.96,30.00,0.00,
"CA001096460","1963-05-01",51.08,26.96,0.00,0.00,
"CA001096460","1963-05-02",51.98,21.92,0.00,0.00,
"CA001096460","1963-05-03",53.96,28.04,5.00,5.00,
"CA001096460","1963-05-04",51.08,32.00,0.00,0.00,
"CA001096460","1963-05-05",51.98,32.00,20.00,0.00,
"CA001096460","1963-05-06",57.92,26.06,0.00,0.00,
"CA001096460","1963-05-07",57.92,28.94,0.00,0.00,
"CA001096460","1963-05-08",48.92,33.08,0.00,0.00,
"CA001096460","1963-05-09",51.98,33.98,10.00,0.00,
"CA001096460","1963-05-10",62.06,26.96,0.00,0.00,
"CA001096460","1963-05-11",62.96,24.98,0.00,0.00,
"CA001096460","1963-05-12",60.08,28.04,0.00,0.00,
"CA001096460","1963-05-13",60.98,33.08,28.00,0.00,
"CA001096460","1963-05-14",60.08,37.94,114.00,0.00,
"CA001096460","1963-05-15",62.06,39.92,43.00,0.00,
"CA001096460","1963-05-16",62.96,28.04,0.00,0.00,
"CA001096460","1963-05-17",68.00,26.96,0.00,0.00,
"CA001096460","1963-05-18",69.08,30.92,0.00,0.00,
"CA001096460","1963-05-19",75.02,30.02,0.00,0.00,
"CA001096460","1963-05-20",78.98,33.98,0.00,0.00,
"CA001096460","1963-05-21",80.96,48.02,0.00,0.00,
"CA001096460","1963-05-22",84.02,39.92,0.00,0.00,
"CA001096460","1963-05-23",66.92,37.94,0.00,0.00,
"CA001096460","1963-05-24",69.98,35.06,0.00,0.00,
"CA001096460","1963-05-25",57.02,39.92,0.00,0.00,
"CA001096460","1963-05-26",62.06,28.94,5.00,0.00,
"CA001096460","1963-05-27",64.94,30.92,0.00,0.00,
"CA001096460","1963-05-28",71.96,33.08,0.00,0.00,
"CA001096460","1963-05-29",62.96,44.96,0.00,0.00,
"CA001096460","1963-05-30",60.08,44.96,18.00,0.00,
"CA001096460","1963-05-31",60.98,39.02,30.00,0.00,
"CA001096460","1963-06-01",59.00,42.98,64.00,0.00,
"CA001096460","1963-06-02",64.04,41.00,0.00,0.00,
"CA001096460","1963-06-03",71.06,33.98,0.00,0.00,
"CA001096460","1963-06-04",62.96,44.06,18.00,0.00,
"CA001096460","1963-06-05",62.06,42.08,0.00,0.00,
"CA001096460","1963-06-06",64.04,30.92,0.00,0.00,
"CA001096460","1963-06-07",69.08,44.06,0.00,0.00,
"CA001096460","1963-06-08",60.98,35.96,79.00,0.00,
"CA001096460","1963-06-09",69.08,42.08,0.00,0.00,
"CA001096460","1963-06-10",69.08,39.02,84.00,0.00,
"CA001096460","1963-06-11",62.06,53.06,0.00,0.00,
"CA001096460","1963-06-12",62.96,37.04,0.00,0.00,
"CA001096460","1963-06-13",71.06,33.08,0.00,0.00,
"CA001096460","1963-06-14",75.92,33.98,0.00,0.00,
"CA001096460","1963-06-15",80.96,39.02,0.00,0.00,
"CA001096460","1963-06-16",75.92,53.06,0.00,0.00,
"CA001096460","1963-06-17",73.94,44.06,0.00,0.00,
"CA001096460","1963-06-18",78.08,39.92,43.00,0.00,
"CA001096460","1963-06-19",64.04,44.96,48.00,0.00,
"CA001096460","1963-06-20",66.02,42.08,0.00,0.00,
"CA001096460","1963-06-21",66.92,42.98,51.00,0.00,
"CA001096460","1963-06-22",68.00,42.08,0.00,0.00,